Location: Ciserano
(45.5833°N, 9.6000°E)
Time: 07:33:58
(UTC+00:00)

Cosmos 1295 Rocket - Pass Details

Date: 19 April 2021
Orbit: 944 x 993 km, 82.9° (Epoch: 13 May)

Event Time Altitude Azimuth Distance (km) Brightness Sun altitude
Rises 22:12:43 0° 4° (N) 3,674 8.5 -30.9°
Reaches altitude 10° 22:16:22 10° 25° (NNE) 2,732 7.3 -31.1°
Maximum altitude 22:20:07 16° 62° (ENE) 2,316 6.5 -31.3°
Enters shadow 22:21:03 16° 73° (ENE) 2,345 6.5 -31.4°
